TimeCST,TemperatureF,Dew PointF,Humidity,Sea Level PressureIn,VisibilityMPH,Wind Direction,Wind SpeedMPH,Gust SpeedMPH,PrecipitationIn,Events,Conditions,WindDirDegrees,DateUTC
12:22 AM,71.6,68.0,88,29.84,9.0,SE,9.2,-,N/A,,Mostly Cloudy,130,2012-12-09 06:22:00
12:53 AM,73.0,68.0,84,29.83,9.0,SSE,8.1,-,N/A,,Mostly Cloudy,150,2012-12-09 06:53:00
1:02 AM,73.4,69.8,88,29.83,9.0,SSE,9.2,-,N/A,,Mostly Cloudy,150,2012-12-09 07:02:00
1:53 AM,73.0,69.1,87,29.83,8.0,SE,9.2,-,N/A,,Overcast,140,2012-12-09 07:53:00
2:53 AM,72.0,69.1,91,29.81,6.0,SE,8.1,-,N/A,,Overcast,140,2012-12-09 08:53:00
3:53 AM,73.0,70.0,90,29.81,5.0,SSE,8.1,-,N/A,,Overcast,160,2012-12-09 09:53:00
4:27 AM,73.4,69.8,88,29.82,5.0,SSE,6.9,-,N/A,,Overcast,150,2012-12-09 10:27:00
4:53 AM,73.0,70.0,90,29.81,5.0,SSE,8.1,-,N/A,,Mostly Cloudy,150,2012-12-09 10:53:00
5:16 AM,71.6,69.8,94,29.82,5.0,SSE,8.1,-,N/A,,Overcast,150,2012-12-09 11:16:00
5:53 AM,73.4,69.8,88,29.83,5.0,SSE,9.2,-,N/A,,Overcast,160,2012-12-09 11:53:00
6:53 AM,72.0,70.0,93,29.83,5.0,SSE,8.1,-,N/A,,Overcast,150,2012-12-09 12:53:00
7:07 AM,71.6,69.8,94,29.84,2.5,SSE,9.2,-,N/A,,Overcast,150,2012-12-09 13:07:00
7:26 AM,71.6,69.8,94,29.84,2.5,SSE,9.2,-,N/A,,Mostly Cloudy,150,2012-12-09 13:26:00
7:33 AM,71.6,69.8,94,29.84,2.5,SE,11.5,-,N/A,,Mostly Cloudy,140,2012-12-09 13:33:00
7:40 AM,73.4,69.8,88,29.84,3.0,SSE,12.7,-,N/A,,Mostly Cloudy,150,2012-12-09 13:40:00
7:53 AM,73.0,70.0,90,29.85,3.0,SSE,9.2,-,N/A,,Mostly Cloudy,150,2012-12-09 13:53:00
8:53 AM,73.9,70.0,87,29.88,4.0,South,12.7,-,N/A,,Mostly Cloudy,170,2012-12-09 14:53:00
9:53 AM,77.0,70.0,79,29.89,8.0,SSE,9.2,-,N/A,,Mostly Cloudy,160,2012-12-09 15:53:00
10:00 AM,75.2,69.8,83,29.89,5.0,South,10.4,17.3,N/A,,Haze,170,2012-12-09 16:00:00
10:53 AM,78.1,69.1,74,29.88,5.0,South,9.2,-,N/A,,Haze,180,2012-12-09 16:53:00
11:00 AM,78.8,69.8,74,29.88,10.0,South,11.5,-,N/A,,Mostly Cloudy,170,2012-12-09 17:00:00
11:53 AM,81.0,68.0,65,29.85,10.0,SSE,11.5,-,N/A,,Mostly Cloudy,160,2012-12-09 17:53:00
12:53 PM,82.0,66.0,58,29.81,10.0,SSE,12.7,18.4,N/A,,Overcast,150,2012-12-09 18:53:00
1:53 PM,84.0,66.0,55,29.78,10.0,SSE,11.5,-,N/A,,Mostly Cloudy,160,2012-12-09 19:53:00
2:53 PM,86.0,66.0,51,29.76,10.0,South,11.5,17.3,N/A,,Mostly Cloudy,170,2012-12-09 20:53:00
3:53 PM,82.9,68.0,60,29.75,10.0,SE,17.3,23.0,N/A,,Mostly Cloudy,130,2012-12-09 21:53:00
4:53 PM,81.0,68.0,65,29.75,10.0,SE,17.3,-,N/A,,Partly Cloudy,140,2012-12-09 22:53:00
5:53 PM,79.0,69.1,72,29.76,10.0,SE,10.4,-,N/A,,Clear,140,2012-12-09 23:53:00
6:53 PM,78.1,69.1,74,29.78,10.0,SSE,10.4,-,N/A,,Clear,150,2012-12-10 00:53:00
7:53 PM,77.0,69.1,76,29.79,10.0,SE,9.2,-,N/A,,Clear,140,2012-12-10 01:53:00
8:53 PM,75.9,69.1,79,29.80,10.0,SSE,8.1,-,N/A,,Clear,150,2012-12-10 02:53:00
9:53 PM,75.9,69.1,79,29.81,10.0,SSE,5.8,-,N/A,,Clear,150,2012-12-10 03:53:00
10:53 PM,75.0,69.1,82,29.81,9.0,SSE,10.4,-,N/A,,Clear,160,2012-12-10 04:53:00
11:53 PM,75.0,70.0,84,29.81,8.0,SSE,9.2,-,N/A,,Clear,160,2012-12-10 05:53:00